Torna al catalogo

CZ-6A DEB

AttivoPO
NORAD 60761·DEBRIS·🇨🇳 China

Lanciato Aug 6, 2024 da Taiyuan Satellite Launch Center

Loading…

Prossimi Passaggi (prossime 24 ore)

TLE

AggiornatoSource: Space-Track

Epoca: Sep 14, 2026, 10:36 UTC

1 60761U 24140EL  26257.44228555  .00012144  00000-0  11777-2 0  9995
2 60761  88.9990 257.8875 0047092 237.3904 122.2776 14.91751509112482

Traccia CZ-6A DEB in tempo reale con AllMySat

Download on the App Store